TimeCDT,TemperatureF,Dew PointF,Humidity,Sea Level PressureIn,VisibilityMPH,Wind Direction,Wind SpeedMPH,Gust SpeedMPH,PrecipitationIn,Events,Conditions,WindDirDegrees,DateUTC
12:13 AM,57.2,44.6,63,29.83,10.0,NW,6.9,-,N/A,,Clear,320,2013-07-20 05:13:00
12:34 AM,57.2,44.6,63,29.85,10.0,NNW,6.9,-,N/A,,Clear,330,2013-07-20 05:34:00
12:53 AM,55.4,44.6,67,29.85,10.0,North,10.4,-,N/A,,Clear,350,2013-07-20 05:53:00
1:14 AM,55.4,44.6,67,29.86,10.0,NNW,8.1,-,N/A,,Clear,330,2013-07-20 06:14:00
1:34 AM,55.4,42.8,63,29.87,10.0,NNW,9.2,-,N/A,,Clear,340,2013-07-20 06:34:00
1:53 AM,53.6,44.6,72,29.88,10.0,NNW,5.8,-,N/A,,Clear,340,2013-07-20 06:53:00
2:14 AM,51.8,42.8,71,29.88,10.0,NNW,6.9,-,N/A,,Clear,330,2013-07-20 07:14:00
2:34 AM,51.8,42.8,71,29.88,10.0,NNW,5.8,-,N/A,,Clear,340,2013-07-20 07:34:00
2:53 AM,50.0,42.8,76,29.89,10.0,NNW,4.6,-,N/A,,Clear,330,2013-07-20 07:53:00
3:14 AM,50.0,41.0,71,29.90,10.0,NNW,6.9,-,N/A,,Clear,330,2013-07-20 08:14:00
3:34 AM,48.2,41.0,76,29.90,10.0,NNW,4.6,-,N/A,,Clear,330,2013-07-20 08:34:00
3:53 AM,48.2,41.0,76,29.90,10.0,NNW,5.8,-,N/A,,Clear,330,2013-07-20 08:53:00
4:14 AM,48.2,41.0,76,29.91,10.0,NNW,5.8,-,N/A,,Clear,330,2013-07-20 09:14:00
4:34 AM,48.2,39.2,71,29.91,10.0,NNW,4.6,-,N/A,,Clear,340,2013-07-20 09:34:00
4:54 AM,46.4,39.2,76,29.92,10.0,NNW,5.8,-,N/A,,Clear,330,2013-07-20 09:54:00
5:13 AM,46.4,39.2,76,29.92,10.0,NNW,8.1,-,N/A,,Clear,330,2013-07-20 10:13:00
5:34 AM,46.4,39.2,76,29.93,10.0,NNW,8.1,-,N/A,,Clear,330,2013-07-20 10:34:00
5:54 AM,48.2,39.2,71,29.93,10.0,NNW,6.9,-,N/A,,Clear,330,2013-07-20 10:54:00
6:13 AM,48.2,39.2,71,29.94,10.0,NNW,6.9,-,N/A,,Clear,340,2013-07-20 11:13:00
6:33 AM,48.2,39.2,71,29.94,10.0,NNW,5.8,-,N/A,,Clear,340,2013-07-20 11:33:00
6:54 AM,50.0,41.0,71,29.95,10.0,NNW,4.6,-,N/A,,Clear,340,2013-07-20 11:54:00
7:13 AM,51.8,41.0,67,29.96,10.0,NNW,5.8,-,N/A,,Clear,340,2013-07-20 12:13:00
7:34 AM,53.6,41.0,62,29.97,10.0,North,5.8,-,N/A,,Clear,360,2013-07-20 12:34:00
7:54 AM,53.6,41.0,62,29.98,10.0,NNW,6.9,-,N/A,,Clear,340,2013-07-20 12:54:00
8:13 AM,53.6,41.0,62,29.98,10.0,North,5.8,-,N/A,,Clear,350,2013-07-20 13:13:00
8:33 AM,55.4,41.0,58,29.98,10.0,NNW,8.1,-,N/A,,Clear,330,2013-07-20 13:33:00
8:54 AM,55.4,41.0,58,30.00,10.0,NNW,6.9,-,N/A,,Clear,340,2013-07-20 13:54:00
9:13 AM,57.2,41.0,55,30.01,10.0,NNE,9.2,-,N/A,,Mostly Cloudy,20,2013-07-20 14:13:00
9:34 AM,57.2,42.8,59,30.02,10.0,WNW,3.5,-,N/A,,Overcast,300,2013-07-20 14:34:00
9:53 AM,55.4,42.8,63,30.02,10.0,NNW,4.6,-,N/A,,Scattered Clouds,340,2013-07-20 14:53:00
10:14 AM,57.2,41.0,55,30.02,10.0,North,8.1,-,N/A,,Scattered Clouds,360,2013-07-20 15:14:00
10:33 AM,59.0,41.0,51,30.03,10.0,NNW,5.8,-,N/A,,Scattered Clouds,340,2013-07-20 15:33:00
10:53 AM,57.2,41.0,55,30.03,10.0,West,3.5,-,N/A,,Scattered Clouds,280,2013-07-20 15:53:00
11:14 AM,60.8,41.0,48,30.02,10.0,West,5.8,-,N/A,,Scattered Clouds,280,2013-07-20 16:14:00
11:33 AM,59.0,41.0,51,30.03,10.0,NW,3.5,-,N/A,,Scattered Clouds,310,2013-07-20 16:33:00
11:53 AM,57.2,42.8,59,30.03,10.0,WNW,4.6,-,N/A,,Mostly Cloudy,290,2013-07-20 16:53:00
12:14 PM,60.8,41.0,48,30.03,10.0,NNW,5.8,-,N/A,,Mostly Cloudy,340,2013-07-20 17:14:00
12:33 PM,60.8,44.6,55,30.04,10.0,NW,3.5,-,N/A,,Mostly Cloudy,310,2013-07-20 17:33:00
12:53 PM,59.0,44.6,59,30.04,10.0,SSE,6.9,-,N/A,,Scattered Clouds,150,2013-07-20 17:53:00
1:14 PM,57.2,44.6,63,30.05,10.0,SSE,3.5,-,N/A,,Scattered Clouds,150,2013-07-20 18:14:00
1:33 PM,57.2,42.8,59,30.04,10.0,SSE,3.5,-,N/A,,Scattered Clouds,150,2013-07-20 18:33:00
1:53 PM,57.2,44.6,63,30.04,10.0,SSE,5.8,-,N/A,,Scattered Clouds,160,2013-07-20 18:53:00
2:14 PM,57.2,44.6,63,30.03,10.0,SSE,5.8,-,N/A,,Scattered Clouds,160,2013-07-20 19:14:00
2:33 PM,57.2,44.6,63,30.03,10.0,SE,4.6,-,N/A,,Scattered Clouds,130,2013-07-20 19:33:00
2:54 PM,59.0,44.6,59,30.03,10.0,SSE,4.6,-,N/A,,Scattered Clouds,150,2013-07-20 19:54:00
3:14 PM,57.2,44.6,63,30.03,10.0,ESE,3.5,-,N/A,,Scattered Clouds,120,2013-07-20 20:14:00
3:33 PM,57.2,44.6,63,30.04,10.0,SSE,6.9,-,N/A,,Scattered Clouds,150,2013-07-20 20:33:00
3:54 PM,57.2,44.6,63,30.04,10.0,SE,5.8,-,N/A,,Scattered Clouds,140,2013-07-20 20:54:00
4:14 PM,55.4,42.8,63,30.04,10.0,SSE,5.8,-,N/A,,Scattered Clouds,160,2013-07-20 21:14:00
4:33 PM,55.4,42.8,63,30.04,10.0,SSE,5.8,-,N/A,,Scattered Clouds,150,2013-07-20 21:33:00
4:54 PM,53.6,42.8,67,30.04,10.0,SSE,6.9,-,N/A,,Mostly Cloudy,150,2013-07-20 21:54:00
5:13 PM,55.4,42.8,63,30.04,10.0,SE,4.6,-,N/A,,Mostly Cloudy,130,2013-07-20 22:13:00
5:34 PM,53.6,42.8,67,30.04,10.0,SSE,5.8,-,N/A,,Mostly Cloudy,150,2013-07-20 22:34:00
5:53 PM,53.6,41.0,62,30.03,10.0,Calm,Calm,-,N/A,,Mostly Cloudy,0,2013-07-20 22:53:00
6:13 PM,55.4,41.0,58,30.03,10.0,SE,4.6,-,N/A,,Scattered Clouds,140,2013-07-20 23:13:00
6:34 PM,53.6,41.0,62,30.03,10.0,SSE,4.6,-,N/A,,Mostly Cloudy,150,2013-07-20 23:34:00
6:53 PM,53.6,41.0,62,30.04,10.0,South,3.5,-,N/A,,Overcast,180,2013-07-20 23:53:00
7:13 PM,51.8,42.8,71,30.05,10.0,Calm,Calm,-,N/A,,Overcast,0,2013-07-21 00:13:00
7:34 PM,51.8,39.2,62,30.05,10.0,Calm,Calm,-,N/A,,Mostly Cloudy,0,2013-07-21 00:34:00
7:53 PM,51.8,41.0,67,30.05,10.0,Calm,Calm,-,N/A,,Scattered Clouds,0,2013-07-21 00:53:00
8:14 PM,48.2,42.8,82,30.05,10.0,Calm,Calm,-,N/A,,Scattered Clouds,0,2013-07-21 01:14:00
8:33 PM,48.2,42.8,82,30.04,10.0,Calm,Calm,-,N/A,,Clear,0,2013-07-21 01:33:00
8:54 PM,46.4,42.8,87,30.04,10.0,Calm,Calm,-,N/A,,Scattered Clouds,0,2013-07-21 01:54:00
9:14 PM,46.4,42.8,87,30.04,10.0,Calm,Calm,-,N/A,,Scattered Clouds,0,2013-07-21 02:14:00
9:33 PM,46.4,41.0,81,30.05,10.0,North,3.5,-,N/A,,Scattered Clouds,360,2013-07-21 02:33:00
9:54 PM,44.6,41.0,87,30.05,10.0,Calm,Calm,-,N/A,,Scattered Clouds,0,2013-07-21 02:54:00
10:13 PM,44.6,41.0,87,30.05,10.0,Calm,Calm,-,N/A,,Clear,0,2013-07-21 03:13:00
10:34 PM,42.8,39.2,87,30.06,10.0,Calm,Calm,-,N/A,,Clear,0,2013-07-21 03:34:00
10:54 PM,42.8,39.2,87,30.06,10.0,Calm,Calm,-,N/A,,Clear,0,2013-07-21 03:54:00
11:13 PM,42.8,39.2,87,30.06,10.0,Calm,Calm,-,N/A,,Clear,0,2013-07-21 04:13:00
11:34 PM,42.8,39.2,87,30.07,10.0,Calm,Calm,-,N/A,,Clear,0,2013-07-21 04:34:00
11:53 PM,39.2,37.4,93,30.07,10.0,Calm,Calm,-,N/A,,Clear,0,2013-07-21 04:53:00